When you browse on this site, cookies collect data to enhance your experience and personalize the content and advertising you see.
Visit our Privacy Policy to learn more. By continuing to use the site, you agree to this use of cookies and data.
  • In Czech Republic
  • List of Countries
  • For 7 days
  • Water Temperature
  • Satellite Maps
  • Weather Map
  • Weather Widgets
  • user-avatar
    Login

    Hourly Weather Gabú

    Today, 13 December, Thursday

    Time Temperature Precipitation Wind Pressure Humidity
    00:00 +25°C° 0 mm 1 mps 753 mmHg 30%
    01:00 +24°C° 0 mm 1 mps 753 mmHg 32%
    02:00 +24°C° 0 mm 1 mps 753 mmHg 34%
    03:00 +23°C° 0 mm 1 mps 753 mmHg 36%
    04:00 +23°C° 0 mm 1 mps 753 mmHg 38%
    05:00 +22°C° 0 mm 1 mps 753 mmHg 40%
    06:00 +24°C° 0 mm 1 mps 754 mmHg 36%
    07:00 +26°C° 0 mm 1 mps 754 mmHg 32%
    08:00 +26°C° 0 mm 0 mps 754 mmHg 29%
    09:00 +30°C° 0 mm 0 mps 754 mmHg 23%
    10:00 +34°C° 0 mm 0 mps 754 mmHg 18%
    11:00 +38°C° 0 mm 0 mps 754 mmHg 13%
    12:00 +38°C° 0 mm 0 mps 754 mmHg 13%
    13:00 +42°C° 0 mm 1 mps 753 mmHg 13%
    14:00 +42°C° 0 mm 1 mps 752 mmHg 13%
    15:00 +40°C° 0 mm 1 mps 752 mmHg 15%
    16:00 +37°C° 0 mm 1 mps 752 mmHg 18%
    17:00 +36°C° 0 mm 1 mps 752 mmHg 20%
    18:00 +34°C° 0 mm 1 mps 753 mmHg 22%
    19:00 +32°C° 0 mm 1 mps 753 mmHg 23%
    20:00 +30°C° 0 mm 1 mps 754 mmHg 25%
    21:00 +29°C° 0 mm 1 mps 754 mmHg 28%
    22:00 +28°C° 0 mm 1 mps 754 mmHg 32%
    23:00 +27°C° 0 mm 2 mps 754 mmHg 35%

    Tomorrow, 14 December, Friday

    Time Temperature Precipitation Wind Pressure Humidity
    00:00 +27°C° 0 mm 1 mps 754 mmHg 41%
    01:00 +26°C° 0 mm 1 mps 754 mmHg 46%
    02:00 +25°C° 0 mm 1 mps 754 mmHg 52%
    03:00 +24°C° 0 mm 1 mps 754 mmHg 54%
    04:00 +24°C° 0 mm 1 mps 754 mmHg 57%
    05:00 +21°C° 0 mm 0 mps 754 mmHg 59%
    06:00 +23°C° 0 mm 0 mps 755 mmHg 53%
    07:00 +25°C° 0 mm 0 mps 755 mmHg 48%
    08:00 +27°C° 0 mm 0 mps 756 mmHg 42%
    09:00 +32°C° 0 mm 1 mps 756 mmHg 35%
    10:00 +35°C° 0 mm 1 mps 755 mmHg 27%
    11:00 +39°C° 0 mm 1 mps 755 mmHg 20%
    12:00 +39°C° 0 mm 2 mps 754 mmHg 19%
    13:00 +40°C° 0 mm 2 mps 754 mmHg 17%
    14:00 +40°C° 0 mm 2 mps 753 mmHg 16%
    15:00 +39°C° 0 mm 2 mps 753 mmHg 17%
    16:00 +38°C° 0 mm 2 mps 753 mmHg 18%
    17:00 +36°C° 0 mm 1 mps 753 mmHg 19%
    18:00 +35°C° 0 mm 1 mps 753 mmHg 19%
    19:00 +35°C° 0 mm 2 mps 754 mmHg 18%
    20:00 +32°C° 0 mm 2 mps 754 mmHg 18%
    21:00 +32°C° 0 mm 2 mps 755 mmHg 17%
    22:00 +31°C° 0 mm 1 mps 755 mmHg 17%
    23:00 +31°C° 0 mm 1 mps 755 mmHg 16%

    Day after tomorrow, 15 December, Saturday

    Time Temperature Precipitation Wind Pressure Humidity
    00:00 +30°C° 0 mm 1 mps 755 mmHg 17%
    01:00 +29°C° 0 mm 1 mps 754 mmHg 17%
    02:00 +28°C° 0 mm 1 mps 754 mmHg 18%
    03:00 +27°C° 0 mm 1 mps 754 mmHg 17%
    04:00 +27°C° 0 mm 1 mps 754 mmHg 16%
    05:00 +26°C° 0 mm 1 mps 755 mmHg 16%
    06:00 +28°C° 0 mm 2 mps 755 mmHg 15%
    07:00 +29°C° 0 mm 3 mps 756 mmHg 14%
    08:00 +31°C° 0 mm 3 mps 756 mmHg 13%
    09:00 +34°C° 0 mm 4 mps 756 mmHg 11%
    10:00 +37°C° 0 mm 4 mps 756 mmHg 10%
    11:00 +40°C° 0 mm 4 mps 756 mmHg 8%
    12:00 +41°C° 0 mm 4 mps 755 mmHg 8%
    13:00 +41°C° 0 mm 4 mps 754 mmHg 8%
    14:00 +42°C° 0 mm 4 mps 753 mmHg 8%
    15:00 +40°C° 0 mm 3 mps 753 mmHg 9%
    16:00 +39°C° 0 mm 2 mps 753 mmHg 10%
    17:00 +38°C° 0 mm 2 mps 753 mmHg 11%
    18:00 +35°C° 0 mm 2 mps 754 mmHg 12%
    19:00 +32°C° 0 mm 2 mps 754 mmHg 13%
    20:00 +30°C° 0 mm 2 mps 755 mmHg 14%
    21:00 +29°C° 0 mm 2 mps 755 mmHg 14%
    22:00 +29°C° 0 mm 2 mps 755 mmHg 13%
    23:00 +28°C° 0 mm 2 mps 755 mmHg 13%

    16 December, Sunday

    Time Temperature Precipitation Wind Pressure Humidity
    00:00 +27°C° 0 mm 2 mps 755 mmHg 14%
    01:00 +27°C° 0 mm 2 mps 755 mmHg 14%
    02:00 +26°C° 0 mm 2 mps 754 mmHg 14%
    03:00 +25°C° 0 mm 2 mps 754 mmHg 14%
    04:00 +25°C° 0 mm 2 mps 754 mmHg 14%
    05:00 +24°C° 0 mm 2 mps 754 mmHg 15%
    06:00 +26°C° 0 mm 2 mps 755 mmHg 14%
    07:00 +27°C° 0 mm 3 mps 755 mmHg 13%
    08:00 +29°C° 0 mm 3 mps 755 mmHg 12%
    09:00 +33°C° 0 mm 4 mps 755 mmHg 10%
    10:00 +36°C° 0 mm 4 mps 755 mmHg 9%
    11:00 +40°C° 0 mm 4 mps 754 mmHg 7%
    12:00 +41°C° 0 mm 4 mps 754 mmHg 7%
    13:00 +40°C° 0 mm 3 mps 753 mmHg 7%
    14:00 +42°C° 0 mm 3 mps 752 mmHg 7%
    15:00 +40°C° 0 mm 2 mps 752 mmHg 8%
    16:00 +39°C° 0 mm 2 mps 752 mmHg 9%
    17:00 +36°C° 0 mm 1 mps 752 mmHg 10%
    18:00 +34°C° 0 mm 1 mps 753 mmHg 10%
    19:00 +32°C° 0 mm 1 mps 753 mmHg 11%
    20:00 +30°C° 0 mm 1 mps 754 mmHg 12%
    21:00 +28°C° 0 mm 1 mps 754 mmHg 15%
    22:00 +27°C° 0 mm 1 mps 754 mmHg 18%
    23:00 +26°C° 0 mm 1 mps 754 mmHg 21%

    17 December, Monday

    Time Temperature Precipitation Wind Pressure Humidity
    00:00 +25°C° 0 mm 1 mps 754 mmHg 28%
    01:00 +24°C° 0 mm 1 mps 754 mmHg 34%
    02:00 +23°C° 0 mm 1 mps 753 mmHg 41%
    03:00 +21°C° 0 mm 0 mps 753 mmHg 43%
    04:00 +20°C° 0 mm 0 mps 753 mmHg 45%
    05:00 +20°C° 0 mm 0 mps 753 mmHg 48%
    06:00 +22°C° 0 mm 0 mps 754 mmHg 42%
    07:00 +26°C° 0 mm 1 mps 754 mmHg 37%
    08:00 +28°C° 0 mm 1 mps 755 mmHg 31%
    09:00 +31°C° 0 mm 1 mps 754 mmHg 25%
    10:00 +35°C° 0 mm 2 mps 754 mmHg 19%
    11:00 +38°C° 0 mm 2 mps 754 mmHg 13%
    12:00 +39°C° 0 mm 2 mps 753 mmHg 12%
    13:00 +40°C° 0 mm 2 mps 752 mmHg 11%
    14:00 +41°C° 0 mm 1 mps 751 mmHg 10%
    15:00 +40°C° 0 mm 1 mps 751 mmHg 12%
    16:00 +39°C° 0 mm 1 mps 751 mmHg 13%
    17:00 +36°C° 0 mm 1 mps 752 mmHg 15%
    18:00 +34°C° 0 mm 1 mps 752 mmHg 17%
    19:00 +32°C° 0 mm 1 mps 753 mmHg 18%
    20:00 +30°C° 0 mm 1 mps 753 mmHg 20%
    21:00 +28°C° 0 mm 1 mps 754 mmHg 30%
    22:00 +27°C° 0 mm 1 mps 754 mmHg 39%
    23:00 +26°C° 0 mm 1 mps 754 mmHg 48%

    18 December, Tuesday

    Time Temperature Precipitation Wind Pressure Humidity
    00:00 +25°C° 0 mm 1 mps 754 mmHg 56%
    01:00 +24°C° 0 mm 1 mps 754 mmHg 64%
    02:00 +24°C° 0 mm 1 mps 753 mmHg 72%
    03:00 +21°C° 0 mm 0 mps 754 mmHg 75%
    04:00 +21°C° 0 mm 0 mps 754 mmHg 79%
    05:00 +20°C° 0 mm 0 mps 754 mmHg 82%
    06:00 +22°C° 0 mm 0 mps 754 mmHg 74%
    07:00 +24°C° 0 mm 0 mps 755 mmHg 65%
    08:00 +26°C° 0 mm 0 mps 755 mmHg 57%
    09:00 +31°C° 0 mm 1 mps 755 mmHg 45%
    10:00 +34°C° 0 mm 1 mps 754 mmHg 33%
    11:00 +37°C° 0 mm 1 mps 754 mmHg 21%
    12:00 +39°C° 0 mm 1 mps 753 mmHg 18%
    13:00 +40°C° 0 mm 1 mps 752 mmHg 16%
    14:00 +41°C° 0 mm 1 mps 751 mmHg 13%
    15:00 +40°C° 0 mm 1 mps 752 mmHg 15%
    16:00 +39°C° 0 mm 1 mps 752 mmHg 16%
    17:00 +36°C° 0 mm 1 mps 752 mmHg 17%
    18:00 +34°C° 0 mm 1 mps 752 mmHg 19%
    19:00 +32°C° 0 mm 1 mps 753 mmHg 21%
    20:00 +30°C° 0 mm 1 mps 753 mmHg 23%
    21:00 +28°C° 0 mm 1 mps 754 mmHg 31%
    22:00 +27°C° 0 mm 1 mps 754 mmHg 38%
    23:00 +26°C° 0 mm 1 mps 754 mmHg 46%
    Show more